QPF
0.06 0.07 0.07 0.07 0.06 0.05 0.04 0.03 0.03 0.03 0.04 0.04 0.05 0.05 0.04 0.04 0.03 0.02 0.02 0.02 0.02 0.03 0.03 0.04 0.05 0.06 0.06 0.06 0.06 0.06 0.06 0.07 0.06 0.04 0.02 0.01 0.01 0.02 0.03 0.03 0.03 0.03 0.03
0.06 0.08 0.09 0.09 0.09 0.08 0.07 0.07 0.06 0.05 0.06 0.05 0.05 0.05 0.05 0.04 0.04 0.04 0.04 0.05 0.05 0.06 0.07 0.08 0.08 0.08 0.08 0.08 0.09 0.09 0.09 0.08 0.07 0.05 0.03 0.02 0.01 0.01 0.01 0.02 0.02 0.03 0.03
0.05 0.06 0.06 0.06 0.06 0.05 0.05 0.05 0.05 0.04 0.04 0.03 0.03 0.03 0.03 0.03 0.02 0.02 0.03 0.04 0.04 0.05 0.05 0.06 0.06 0.05 0.05 0.05 0.06 0.06 0.06 0.05 0.05 0.04 0.03 0.02 0.01 0.01 0.01 0.02 0.02 0.03 0.03
0.02 0.03 0.04 0.04 0.04 0.04 0.04 0.04 0.03 0.02 0.02 0.01 0.01 0.02 0.02 0.02 0.02 0.02 0.02 0.02 0.02 0.02 0.02 0.02 0.02 0.02 0.02 0.02 0.02 0.03 0.03 0.03 0.03 0.03 0.03 0.02 0.02 0.01 0.02 0.02 0.03 0.03 0.03
0.02 0.02 0.03 0.03 0.03 0.04 0.03 0.02 0.02 0.01 0.01 0.01 0.01 0.01 0.01 0.02 0.02 0.02 0.02 0.02 0.02 0.02 0.02 0.02 0.01 0.01 0.01 0.01 0.02 0.02 0.03 0.03 0.04 0.04 0.03 0.03 0.02 0.02 0.02 0.02 0.03 0.03 0.03
0.01 0.01 0.02 0.02 0.02 0.02 0.02 0.01 0.01 0.01 0.01 0.01 0.01 0.01 0.01 0.01 0.01 0.01 0.01 0.01 0.01 0.01 0.01 0.01 0.01 0.00 0.01 0.01 0.01 0.01 0.02 0.03 0.03 0.03 0.03 0.03 0.02 0.02 0.02 0.03 0.03 0.04 0.04
0.01 0.01 0.01 0.01 0.01 0.01 0.01 0.01 0.01 0.01 0.01 0.01 0.01 0.01 0.00 0.01 0.01 0.01 0.01 0.01 0.00 0.00 0.00 0.00 0.00 0.00 0.00 0.00 0.00 0.01 0.01 0.01 0.02 0.03 0.03 0.03 0.02 0.02 0.03 0.04 0.04 0.05 0.05
0.01 0.01 0.01 0.01 0.01 0.01 0.01 0.01 0.01 0.01 0.01 0.01 0.01 0.01 0.01 0.01 0.01 0.01 0.01 0.00 0.00 0.00 0.00 0.00 0.00 0.00 0.00 0.00 0.00 0.00 0.01 0.01 0.01 0.02 0.02 0.02 0.02 0.02 0.03 0.04 0.05 0.05 0.05
0.01 0.01 0.01 0.01 0.01 0.01 0.01 0.01 0.01 0.00 0.00 0.01 0.01 0.01 0.01 0.01 0.01 0.01 0.00 0.00 0.00 0.00 0.00 0.00 0.00 0.00 0.00 0.01 0.01 0.01 0.01 0.01 0.01 0.01 0.02 0.03 0.03 0.03 0.03 0.04 0.05 0.05 0.05
0.00 0.01 0.01 0.01 0.01 0.01 0.01 0.01 0.00 0.00 0.00 0.00 0.01 0.01 0.01 0.01 0.01 0.01 0.01 0.00 0.00 0.00 0.00 0.00 0.00 0.00 0.01 0.01 0.01 0.02 0.01 0.01 0.01 0.01 0.01 0.02 0.02 0.03 0.03 0.04 0.04 0.05 0.05
0.00 0.00 0.00 0.00 0.00 0.00 0.00 0.00 0.00 0.00 0.00 0.00 0.01 0.01 0.01 0.01 0.01 0.01 0.01 0.01 0.01 0.01 0.00 0.00 0.00 0.00 0.01 0.01 0.01 0.02 0.01 0.01 0.01 0.02 0.02 0.02 0.02 0.03 0.03 0.03 0.04 0.05 0.05
0.00 0.00 0.00 0.00 0.00 0.00 0.00 0.00 0.00 0.00 0.00 0.00 0.01 0.01 0.01 0.01 0.01 0.01 0.01 0.01 0.01 0.01 0.01 0.00 0.00 0.01 0.01 0.01 0.01 0.01 0.01 0.01 0.01 0.02 0.02 0.02 0.02 0.03 0.03 0.03 0.03 0.04 0.04
0.00 0.00 0.00 0.00 0.00 0.00 0.00 0.00 0.00 0.00 0.00 0.00 0.00 0.01 0.01 0.01 0.01 0.01 0.01 0.01 0.01 0.01 0.01 0.01 0.01 0.01 0.01 0.01 0.01 0.01 0.01 0.01 0.01 0.02 0.02 0.02 0.02 0.02 0.02 0.03 0.03 0.03 0.04
0.00 0.00 0.00 0.00 0.00 0.00 0.00 0.00 0.00 0.00 0.00 0.00 0.00 0.01 0.01 0.01 0.01 0.01 0.01 0.01 0.01 0.01 0.01 0.01 0.01 0.01 0.01 0.01 0.00 0.01 0.01 0.01 0.01 0.02 0.01 0.01 0.01 0.02 0.02 0.03 0.04 0.04 0.05
0.00 0.00 0.00 0.00 0.00 0.00 0.00 0.00 0.00 0.00 0.00 0.01 0.01 0.01 0.01 0.01 0.01 0.01 0.02 0.02 0.02 0.02 0.02 0.02 0.01 0.01 0.01 0.00 0.00 0.01 0.01 0.01 0.01 0.01 0.01 0.01 0.02 0.02 0.02 0.03 0.03 0.04 0.04
0.00 0.00 0.00 0.00 0.00 0.00 0.00 0.00 0.00 0.00 0.00 0.00 0.01 0.01 0.01 0.01 0.01 0.01 0.02 0.02 0.02 0.02 0.02 0.02 0.01 0.01 0.01 0.01 0.01 0.01 0.01 0.01 0.01 0.01 0.02 0.02 0.02 0.03 0.03 0.03 0.03 0.03 0.04
0.00 0.00 0.00 0.00 0.00 0.00 0.00 0.00 0.00 0.00 0.00 0.00 0.00 0.01 0.01 0.01 0.02 0.02 0.02 0.02 0.02 0.02 0.02 0.01 0.01 0.01 0.01 0.01 0.01 0.01 0.01 0.01 0.01 0.02 0.02 0.02 0.02 0.03 0.03 0.03 0.04 0.03 0.03
0.00 0.00 0.00 0.00 0.00 0.00 0.00 0.00 0.00 0.00 0.00 0.00 0.00 0.00 0.01 0.01 0.01 0.01 0.02 0.02 0.01 0.01 0.01 0.01 0.01 0.01 0.01 0.01 0.01 0.01 0.01 0.01 0.01 0.02 0.02 0.02 0.02 0.03 0.03 0.03 0.03 0.03 0.04
0.00 0.00 0.00 0.00 0.00 0.00 0.00 0.00 0.00 0.00 0.00 0.00 0.00 0.00 0.00 0.01 0.01 0.01 0.01 0.02 0.01 0.01 0.01 0.01 0.01 0.01 0.01 0.01 0.01 0.01 0.01 0.01 0.01 0.02 0.02 0.02 0.02 0.03 0.03 0.03 0.03 0.03 0.04
0.00 0.00 0.00 0.00 0.00 0.00 0.00 0.00 0.00 0.00 0.00 0.00 0.00 0.00 0.01 0.01 0.01 0.01 0.01 0.01 0.01 0.01 0.01 0.01 0.01 0.02 0.02 0.01 0.01 0.02 0.02 0.02 0.02 0.02 0.02 0.02 0.02 0.02 0.02 0.02 0.03 0.03 0.04
0.00 0.00 0.00 0.00 0.00 0.00 0.00 0.00 0.00 0.00 0.00 0.00 0.00 0.00 0.01 0.01 0.01 0.01 0.01 0.01 0.01 0.01 0.01 0.02 0.02 0.02 0.02 0.02 0.02 0.02 0.02 0.02 0.02 0.02 0.03 0.03 0.03 0.03 0.02 0.02 0.03 0.03 0.03
0.00 0.00 0.00 0.00 0.00 0.00 0.00 0.00 0.00 0.00 0.00 0.00 0.00 0.00 0.01 0.01 0.01 0.01 0.01 0.01 0.01 0.01 0.02 0.02 0.02 0.02 0.02 0.02 0.02 0.02 0.02 0.02 0.02 0.03 0.03 0.03 0.03 0.04 0.04 0.03 0.03 0.03 0.03
0.00 0.00 0.00 0.00 0.00 0.00 0.00 0.00 0.00 0.00 0.00 0.00 0.01 0.01 0.01 0.01 0.01 0.01 0.01 0.01 0.01 0.01 0.02 0.02 0.01 0.01 0.02 0.02 0.02 0.03 0.03 0.03 0.03 0.04 0.03 0.04 0.04 0.04 0.04 0.04 0.03 0.03 0.02
0.00 0.00 0.00 0.00 0.00 0.00 0.00 0.00 0.00 0.01 0.01 0.01 0.01 0.01 0.01 0.01 0.01 0.01 0.01 0.01 0.01 0.01 0.01 0.01 0.01 0.01 0.01 0.01 0.02 0.02 0.03 0.03 0.03 0.03 0.03 0.03 0.03 0.03 0.03 0.04 0.04 0.04 0.03
0.00 0.00 0.00 0.00 0.00 0.00 0.00 0.00 0.01 0.01 0.01 0.01 0.01 0.01 0.01 0.01 0.01 0.01 0.01 0.01 0.01 0.01 0.01 0.01 0.01 0.01 0.01 0.01 0.01 0.02 0.02 0.02 0.02 0.02 0.02 0.02 0.03 0.03 0.03 0.03 0.04 0.04 0.03
0.00 0.00 0.00 0.00 0.00 0.00 0.01 0.01 0.01 0.01 0.01 0.01 0.01 0.01 0.01 0.01 0.01 0.01 0.01 0.01 0.01 0.01 0.01 0.01 0.01 0.01 0.01 0.01 0.01 0.01 0.01 0.02 0.02 0.02 0.02 0.02 0.03 0.03 0.03 0.03 0.03 0.03 0.03
MSLP
1033.66 1033.45 1033.13 1032.69 1032.14 1031.51 1030.81 1030.10 1029.40 1028.73 1028.11 1027.53 1026.98 1026.42 1025.83 1025.20 1024.50 1023.76 1022.98 1022.19 1021.42 1020.70 1020.03 1019.41 1018.81 1018.21 1017.57 1016.84 1016.01 1015.08 1014.07 1013.00 1011.92 1010.89 1009.94 1009.11 1008.40 1007.83 1007.35 1006.95 1006.59 1006.23 1005.86
1033.47 1033.27 1032.96 1032.53 1031.97 1031.32 1030.59 1029.84 1029.09 1028.36 1027.68 1027.03 1026.41 1025.79 1025.15 1024.48 1023.76 1023.00 1022.21 1021.43 1020.67 1019.95 1019.29 1018.67 1018.08 1017.49 1016.87 1016.17 1015.40 1014.53 1013.59 1012.59 1011.58 1010.59 1009.66 1008.82 1008.07 1007.43 1006.86 1006.37 1005.91 1005.48 1005.05
1033.27 1033.09 1032.79 1032.37 1031.82 1031.16 1030.42 1029.64 1028.84 1028.06 1027.31 1026.59 1025.90 1025.21 1024.51 1023.78 1023.03 1022.25 1021.46 1020.67 1019.91 1019.19 1018.52 1017.89 1017.29 1016.70 1016.08 1015.41 1014.68 1013.87 1012.99 1012.07 1011.13 1010.19 1009.30 1008.45 1007.68 1006.98 1006.35 1005.77 1005.24 1004.73 1004.26
1033.07 1032.91 1032.62 1032.21 1031.67 1031.01 1030.27 1029.48 1028.67 1027.85 1027.04 1026.26 1025.49 1024.73 1023.97 1023.19 1022.39 1021.58 1020.76 1019.95 1019.17 1018.43 1017.74 1017.09 1016.46 1015.85 1015.22 1014.56 1013.85 1013.09 1012.28 1011.43 1010.55 1009.67 1008.81 1007.99 1007.21 1006.47 1005.79 1005.16 1004.57 1004.02 1003.51
1032.90 1032.73 1032.45 1032.05 1031.52 1030.88 1030.15 1029.36 1028.54 1027.70 1026.87 1026.03 1025.21 1024.39 1023.56 1022.72 1021.87 1021.01 1020.16 1019.31 1018.50 1017.72 1016.98 1016.28 1015.61 1014.96 1014.31 1013.64 1012.95 1012.22 1011.46 1010.66 1009.85 1009.03 1008.21 1007.41 1006.64 1005.90 1005.20 1004.54 1003.93 1003.37 1002.86
1032.78 1032.61 1032.31 1031.90 1031.38 1030.75 1030.03 1029.26 1028.44 1027.60 1026.75 1025.89 1025.02 1024.15 1023.26 1022.37 1021.46 1020.55 1019.64 1018.75 1017.88 1017.04 1016.25 1015.49 1014.76 1014.06 1013.37 1012.69 1011.99 1011.28 1010.55 1009.81 1009.04 1008.27 1007.50 1006.73 1005.99 1005.26 1004.57 1003.93 1003.33 1002.78 1002.28
1032.78 1032.57 1032.25 1031.81 1031.27 1030.63 1029.93 1029.16 1028.35 1027.51 1026.64 1025.76 1024.87 1023.95 1023.02 1022.07 1021.11 1020.15 1019.18 1018.23 1017.29 1016.39 1015.53 1014.70 1013.91 1013.16 1012.43 1011.72 1011.02 1010.32 1009.61 1008.90 1008.18 1007.45 1006.72 1005.99 1005.27 1004.58 1003.92 1003.31 1002.74 1002.23 1001.77
1032.93 1032.67 1032.29 1031.81 1031.22 1030.56 1029.83 1029.05 1028.23 1027.38 1026.51 1025.61 1024.69 1023.74 1022.77 1021.78 1020.77 1019.74 1018.72 1017.70 1016.71 1015.74 1014.80 1013.91 1013.07 1012.26 1011.49 1010.75 1010.04 1009.34 1008.65 1007.97 1007.27 1006.58 1005.88 1005.19 1004.51 1003.85 1003.23 1002.66 1002.14 1001.68 1001.28
1033.25 1032.93 1032.48 1031.91 1031.26 1030.53 1029.75 1028.94 1028.08 1027.21 1026.31 1025.39 1024.44 1023.46 1022.45 1021.42 1020.36 1019.29 1018.21 1017.14 1016.08 1015.05 1014.06 1013.11 1012.20 1011.35 1010.54 1009.78 1009.05 1008.35 1007.67 1007.00 1006.33 1005.65 1004.98 1004.31 1003.66 1003.04 1002.46 1001.94 1001.47 1001.07 1000.72
1033.73 1033.33 1032.79 1032.14 1031.39 1030.58 1029.72 1028.84 1027.93 1027.01 1026.07 1025.11 1024.12 1023.10 1022.06 1020.98 1019.88 1018.77 1017.64 1016.51 1015.40 1014.32 1013.27 1012.26 1011.31 1010.41 1009.56 1008.77 1008.03 1007.32 1006.64 1005.97 1005.30 1004.64 1003.98 1003.33 1002.70 1002.11 1001.57 1001.09 1000.68 1000.34 1000.06
1034.31 1033.83 1033.20 1032.44 1031.60 1030.69 1029.74 1028.77 1027.79 1026.80 1025.80 1024.78 1023.75 1022.68 1021.59 1020.48 1019.34 1018.18 1017.01 1015.83 1014.67 1013.53 1012.43 1011.37 1010.36 1009.42 1008.53 1007.71 1006.94 1006.21 1005.51 1004.83 1004.16 1003.50 1002.84 1002.20 1001.59 1001.02 1000.51 1000.08 999.72 999.44 999.23
1034.90 1034.35 1033.63 1032.78 1031.84 1030.84 1029.80 1028.75 1027.68 1026.62 1025.54 1024.46 1023.37 1022.25 1021.11 1019.95 1018.77 1017.56 1016.35 1015.13 1013.92 1012.73 1011.56 1010.45 1009.38 1008.38 1007.44 1006.57 1005.75 1004.99 1004.27 1003.56 1002.88 1002.21 1001.55 1000.91 1000.31 999.77 999.29 998.90 998.60 998.38 998.25
1035.42 1034.80 1034.01 1033.09 1032.08 1031.00 1029.89 1028.76 1027.63 1026.49 1025.34 1024.19 1023.03 1021.86 1020.67 1019.46 1018.23 1016.98 1015.72 1014.45 1013.19 1011.94 1010.71 1009.53 1008.40 1007.32 1006.32 1005.39 1004.52 1003.70 1002.93 1002.20 1001.49 1000.80 1000.14 999.51 998.92 998.40 997.95 997.61 997.36 997.22 997.17
1035.79 1035.11 1034.28 1033.32 1032.26 1031.15 1029.99 1028.81 1027.62 1026.42 1025.22 1024.01 1022.79 1021.56 1020.31 1019.05 1017.78 1016.48 1015.18 1013.86 1012.54 1011.23 1009.94 1008.69 1007.48 1006.33 1005.24 1004.23 1003.29 1002.42 1001.60 1000.83 1000.09 999.38 998.71 998.08 997.51 997.02 996.61 996.31 996.13 996.05 996.09
1035.96 1035.24 1034.38 1033.41 1032.35 1031.23 1030.07 1028.88 1027.67 1026.44 1025.19 1023.93 1022.66 1021.38 1020.09 1018.78 1017.46 1016.13 1014.78 1013.42 1012.05 1010.69 1009.33 1008.01 1006.72 1005.49 1004.32 1003.23 1002.22 1001.28 1000.41 999.59 998.82 998.10 997.43 996.81 996.26 995.79 995.42 995.17 995.05 995.05 995.17
1035.92 1035.19 1034.33 1033.38 1032.35 1031.27 1030.13 1028.96 1027.75 1026.51 1025.25 1023.96 1022.66 1021.34 1020.01 1018.67 1017.32 1015.95 1014.58 1013.19 1011.78 1010.37 1008.97 1007.59 1006.23 1004.93 1003.70 1002.54 1001.45 1000.45 999.53 998.68 997.88 997.15 996.48 995.87 995.34 994.91 994.58 994.37 994.30 994.36 994.56
1035.73 1034.99 1034.15 1033.25 1032.28 1031.26 1030.18 1029.05 1027.87 1026.65 1025.39 1024.09 1022.76 1021.42 1020.07 1018.71 1017.35 1015.98 1014.59 1013.19 1011.78 1010.35 1008.92 1007.50 1006.11 1004.76 1003.47 1002.25 1001.12 1000.07 999.11 998.23 997.42 996.69 996.02 995.43 994.92 994.51 994.22 994.05 994.02 994.14 994.38
1035.45 1034.71 1033.92 1033.07 1032.18 1031.23 1030.23 1029.16 1028.03 1026.83 1025.58 1024.29 1022.97 1021.62 1020.27 1018.92 1017.56 1016.20 1014.83 1013.45 1012.05 1010.64 1009.22 1007.79 1006.39 1005.02 1003.71 1002.46 1001.30 1000.23 999.24 998.35 997.53 996.80 996.14 995.57 995.08 994.70 994.43 994.29 994.29 994.43 994.71
1035.14 1034.43 1033.69 1032.92 1032.10 1031.23 1030.30 1029.29 1028.21 1027.06 1025.83 1024.56 1023.25 1021.93 1020.60 1019.27 1017.95 1016.63 1015.31 1013.97 1012.62 1011.24 1009.85 1008.46 1007.07 1005.71 1004.40 1003.15 1001.99 1000.91 999.92 999.02 998.21 997.48 996.84 996.29 995.83 995.46 995.21 995.09 995.10 995.25 995.54
1034.85 1034.19 1033.52 1032.82 1032.08 1031.29 1030.42 1029.47 1028.44 1027.32 1026.14 1024.90 1023.62 1022.33 1021.04 1019.76 1018.50 1017.24 1015.98 1014.71 1013.43 1012.12 1010.79 1009.44 1008.10 1006.77 1005.48 1004.25 1003.09 1002.02 1001.04 1000.16 999.36 998.66 998.03 997.50 997.06 996.71 996.48 996.36 996.38 996.52 996.79
1034.62 1034.03 1033.43 1032.80 1032.14 1031.41 1030.60 1029.70 1028.71 1027.63 1026.48 1025.28 1024.05 1022.82 1021.59 1020.37 1019.18 1018.00 1016.82 1015.63 1014.42 1013.19 1011.92 1010.64 1009.34 1008.06 1006.80 1005.60 1004.47 1003.43 1002.47 1001.61 1000.83 1000.15 999.55 999.05 998.63 998.31 998.09 997.98 997.99 998.12 998.38
1034.46 1033.94 1033.41 1032.86 1032.26 1031.58 1030.82 1029.96 1029.01 1027.97 1026.87 1025.71 1024.54 1023.36 1022.21 1021.07 1019.95 1018.86 1017.76 1016.65 1015.51 1014.34 1013.14 1011.91 1010.67 1009.43 1008.21 1007.05 1005.95 1004.93 1004.01 1003.17 1002.44 1001.79 1001.23 1000.76 1000.37 1000.08 999.88 999.78 999.79 999.91 1000.15
1034.34 1033.91 1033.46 1032.96 1032.41 1031.78 1031.05 1030.23 1029.31 1028.31 1027.26 1026.16 1025.05 1023.95 1022.86 1021.80 1020.77 1019.74 1018.71 1017.67 1016.59 1015.47 1014.32 1013.13 1011.92 1010.72 1009.54 1008.41 1007.35 1006.37 1005.49 1004.70 1004.01 1003.41 1002.91 1002.48 1002.14 1001.89 1001.72 1001.65 1001.67 1001.78 1001.99
1034.25 1033.89 1033.51 1033.07 1032.56 1031.96 1031.26 1030.47 1029.59 1028.63 1027.62 1026.58 1025.54 1024.50 1023.49 1022.50 1021.53 1020.57 1019.59 1018.59 1017.55 1016.46 1015.33 1014.17 1012.99 1011.82 1010.67 1009.58 1008.57 1007.64 1006.81 1006.08 1005.46 1004.93 1004.49 1004.13 1003.85 1003.65 1003.52 1003.47 1003.51 1003.62 1003.81
1034.15 1033.87 1033.54 1033.14 1032.66 1032.09 1031.42 1030.65 1029.80 1028.88 1027.92 1026.94 1025.96 1024.99 1024.03 1023.10 1022.18 1021.25 1020.30 1019.32 1018.30 1017.22 1016.11 1014.96 1013.81 1012.67 1011.56 1010.52 1009.56 1008.71 1007.95 1007.31 1006.76 1006.31 1005.95 1005.67 1005.46 1005.32 1005.25 1005.23 1005.29 1005.40 1005.58
1034.06 1033.82 1033.53 1033.16 1032.70 1032.15 1031.49 1030.75 1029.92 1029.04 1028.12 1027.19 1026.25 1025.33 1024.42 1023.53 1022.63 1021.72 1020.79 1019.81 1018.79 1017.72 1016.62 1015.49 1014.37 1013.27 1012.22 1011.25 1010.37 1009.60 1008.95 1008.40 1007.96 1007.61 1007.34 1007.15 1007.01 1006.93 1006.91 1006.92 1006.99 1007.11 1007.26
Thickness
5462 5461 5461 5460 5458 5456 5454 5452 5450 5447 5445 5444 5443 5441 5438 5436 5434 5431 5429 5426 5424 5422 5419 5418 5417 5415 5414 5413 5413 5413 5413 5413 5419 5428 5426 5425 5424 5424 5425 5425 5427 5427 5429
5450 5449 5449 5447 5445 5443 5441 5438 5436 5434 5432 5430 5428 5426 5424 5421 5419 5416 5413 5410 5407 5404 5402 5399 5398 5396 5395 5394 5393 5393 5392 5392 5394 5402 5406 5405 5404 5404 5404 5405 5407 5408 5409
5438 5437 5437 5435 5433 5431 5428 5426 5423 5421 5419 5416 5414 5411 5408 5405 5402 5399 5396 5393 5389 5386 5384 5381 5379 5376 5375 5374 5372 5372 5372 5372 5372 5375 5382 5383 5384 5383 5383 5386 5386 5387 5388
5428 5427 5425 5423 5421 5419 5416 5413 5410 5408 5405 5402 5399 5396 5392 5389 5386 5382 5379 5376 5372 5368 5365 5362 5359 5356 5354 5352 5351 5350 5350 5350 5351 5352 5357 5360 5361 5362 5361 5364 5366 5367 5368
5418 5416 5414 5411 5409 5407 5404 5401 5398 5395 5391 5388 5385 5381 5377 5374 5370 5366 5362 5359 5355 5352 5348 5345 5341 5337 5334 5331 5330 5330 5328 5328 5329 5330 5334 5337 5339 5339 5339 5340 5342 5345 5348
5408 5406 5403 5400 5398 5395 5392 5388 5385 5382 5378 5374 5370 5366 5363 5358 5354 5349 5344 5341 5338 5335 5332 5329 5325 5321 5318 5314 5311 5309 5307 5306 5307 5308 5310 5312 5315 5315 5316 5316 5318 5322 5329
5398 5395 5392 5389 5386 5383 5379 5376 5372 5368 5365 5360 5356 5352 5348 5343 5338 5334 5329 5326 5323 5320 5316 5312 5309 5306 5301 5298 5296 5293 5290 5286 5284 5284 5286 5288 5290 5292 5292 5296 5296 5297 5302
5388 5385 5381 5378 5374 5371 5367 5363 5359 5355 5351 5346 5342 5338 5333 5329 5324 5319 5315 5312 5309 5305 5300 5297 5293 5291 5286 5281 5279 5277 5275 5272 5269 5266 5266 5267 5267 5267 5268 5270 5272 5275 5279
5379 5375 5371 5366 5363 5359 5355 5351 5346 5342 5337 5333 5328 5323 5319 5314 5309 5304 5300 5297 5293 5289 5285 5281 5277 5274 5270 5265 5262 5260 5259 5256 5252 5249 5247 5246 5246 5247 5246 5247 5250 5253 5260
5371 5365 5360 5355 5351 5347 5342 5337 5332 5327 5323 5318 5314 5309 5304 5300 5295 5290 5285 5281 5279 5276 5272 5268 5263 5258 5254 5249 5245 5243 5241 5239 5235 5233 5232 5231 5230 5229 5228 5227 5229 5231 5236
5361 5355 5349 5344 5339 5334 5329 5324 5319 5314 5310 5305 5300 5296 5290 5286 5281 5277 5271 5267 5263 5261 5258 5254 5250 5244 5239 5235 5230 5226 5223 5220 5218 5216 5215 5215 5214 5213 5212 5211 5210 5211 5214
5350 5344 5339 5333 5327 5322 5317 5312 5306 5301 5297 5292 5287 5283 5278 5273 5269 5264 5259 5254 5249 5246 5244 5240 5236 5231 5227 5222 5217 5213 5209 5205 5203 5201 5200 5200 5198 5198 5196 5195 5195 5194 5195
5339 5334 5328 5322 5316 5311 5306 5300 5295 5289 5285 5281 5276 5272 5268 5262 5257 5252 5247 5242 5237 5233 5231 5226 5222 5218 5213 5209 5204 5199 5195 5192 5189 5188 5187 5185 5183 5182 5181 5181 5182 5181 5182
5329 5323 5317 5312 5307 5301 5294 5289 5283 5278 5274 5269 5264 5261 5257 5252 5246 5241 5236 5232 5228 5223 5220 5216 5211 5206 5201 5196 5192 5188 5183 5179 5176 5174 5173 5171 5169 5168 5168 5168 5169 5170 5172
5319 5313 5308 5302 5297 5291 5284 5278 5272 5267 5261 5257 5253 5248 5245 5242 5236 5229 5224 5221 5217 5212 5207 5203 5199 5194 5190 5186 5181 5176 5172 5168 5165 5162 5159 5158 5157 5156 5155 5155 5155 5156 5158
5310 5304 5298 5293 5287 5280 5274 5268 5262 5257 5252 5246 5241 5237 5233 5229 5224 5220 5215 5211 5206 5201 5195 5191 5186 5181 5177 5174 5170 5166 5162 5158 5154 5150 5148 5146 5145 5144 5144 5144 5144 5145 5146
5301 5295 5289 5283 5276 5270 5264 5259 5255 5249 5242 5236 5232 5227 5223 5218 5214 5210 5206 5201 5195 5189 5182 5178 5173 5169 5165 5161 5157 5154 5151 5147 5143 5140 5138 5136 5135 5134 5133 5134 5135 5135 5135
5291 5285 5278 5272 5266 5260 5254 5249 5243 5238 5234 5230 5223 5218 5213 5208 5204 5200 5195 5190 5184 5177 5171 5166 5162 5158 5154 5150 5146 5142 5139 5136 5133 5131 5129 5127 5125 5125 5124 5124 5125 5124 5125
5281 5275 5268 5262 5256 5250 5244 5238 5232 5226 5222 5218 5214 5209 5203 5198 5194 5188 5183 5177 5173 5167 5161 5156 5152 5147 5144 5140 5136 5132 5129 5127 5125 5122 5121 5119 5118 5117 5116 5115 5116 5115 5115
5270 5264 5257 5251 5245 5239 5233 5228 5222 5217 5212 5208 5204 5199 5194 5189 5185 5180 5173 5167 5162 5157 5152 5147 5142 5138 5134 5131 5128 5124 5122 5120 5118 5115 5114 5113 5111 5110 5110 5109 5108 5108 5108
5261 5254 5246 5240 5235 5229 5223 5218 5213 5207 5202 5198 5193 5188 5183 5178 5174 5169 5163 5157 5152 5147 5142 5138 5133 5129 5126 5123 5120 5118 5115 5113 5111 5109 5107 5106 5105 5104 5104 5103 5102 5101 5101
5250 5244 5237 5231 5225 5219 5213 5208 5202 5197 5192 5188 5184 5178 5173 5167 5163 5157 5153 5148 5142 5137 5133 5129 5125 5122 5119 5116 5114 5112 5110 5107 5105 5103 5101 5100 5099 5099 5099 5098 5097 5096 5095
5240 5234 5228 5221 5215 5209 5202 5197 5192 5187 5183 5178 5173 5168 5163 5158 5153 5148 5144 5139 5134 5130 5125 5121 5118 5116 5112 5110 5107 5105 5103 5102 5099 5097 5095 5095 5094 5094 5094 5094 5092 5091 5091
5230 5224 5218 5212 5205 5200 5194 5188 5183 5179 5174 5169 5164 5159 5155 5150 5145 5140 5136 5131 5127 5123 5119 5115 5112 5110 5107 5104 5102 5100 5098 5095 5093 5092 5091 5090 5090 5090 5089 5089 5088 5087 5086
5220 5214 5208 5202 5196 5191 5185 5179 5174 5170 5165 5160 5155 5151 5146 5142 5137 5133 5128 5124 5120 5117 5113 5110 5107 5104 5102 5099 5097 5095 5094 5091 5089 5088 5086 5085 5085 5084 5084 5083 5083 5082 5081
5210 5204 5198 5192 5186 5181 5175 5170 5166 5161 5156 5151 5147 5142 5138 5134 5130 5126 5122 5118 5114 5111 5108 5105 5102 5099 5097 5095 5094 5092 5090 5089 5087 5085 5083 5082 5081 5080 5079 5079 5079 5078 5077